Voltar ao catálogo

STARLINK-36426

AtivoComunicaçõesSSO
NORAD 67560·PAYLOAD·🇺🇸 United States

Lançado Jan 22, 2026 de Vandenberg Space Force Base

Loading…

Próximas Passagens (próximas 24 horas)

TLE

AtualizadoSource: CelesTrak SupGP

Época: Sep 15, 2026, 04:15 UTC

1 67560C 26014AA  26258.17756944  .00033730  00000+0  10464-2 0  2583
2 67560  97.2847 143.7053 0001551  92.7096  75.0521 15.33442552    16

Acompanhe STARLINK-36426 em tempo real com AllMySat

Download on the App Store